STARLINK-31419, 59368

Orbit data source: Space-Track

STARLINK-31419, 59368 is a payload satellite owned by SpaceX/Seattle (US) in LEO that was launched on Sun, 31 Mar 2024 UTC via an FALCON 9 launch vehicle from the Air Force Eastern Test Range (AFETR). Payload-class satellites include a variety of spacecraft equipped with specific instruments for various scientific and technological missions. These include communications satellites like Starlink; space stations such as the ISS; scientific satellites like the Hubble; Earth observation satellites from companies like Planet Labs, Umbra, and HawkEye 360; GPS; miniature CubeSats for education and research; and military/defense satellites.

Loading next visibility...
Identifier
59368, 2024-060W
Orbit
LEO
Country
Flag of USUS
Related business
Manufacturer
SpaceX/Seattle
Mission
Operational spacecraft
Bus & Motor
STARLINK V2M, Unknown motor
Mass
730 kg wet, ~700 kg dry
Launch date (UTC)
2024-03-31 (2 years ago)
Launch vehicle
FALCON 9
Launch site
Air Force Eastern Test Range (AFETR)
Object type
Payload
Rocket body
Debris
Shape & HBR
Unknown shape, 17.7 m
Radar Cross Section
Large (>1 m²)

Expand to show TLE details & history
Last TLE update: 22 hours ago

TLE from 22 hours ago
0 STARLINK-31419
1 59368U 24060W   25288.92188362 -.00000276  00000-0 -50386-6 0  9992
2 59368  43.0040 357.3283 0000826 260.5176  99.5582 15.27578098 87924
Epoch: 2025-10-15T22:07Z
TLE epoch observation values (Epoch: 2025-10-15T22:07:30.744Z)
Latitude
-0.00006°
Longitude
0.76113°
Altitude
482.925 km
Speed
7.626 km/s
True Right ascension
23h 49m 18s
True Declination
0° 00' 00"
Sunlit
Object was in full shadow at epoch
Visualization orbit readout
Latitude
Unknown
Longitude
Unknown
Altitude
Unknown
Speed
Unknown
Apparent Right ascension
Unknown
Apparent Declination
Unknown
Sunlit
N/A
Visualization observer readout
Local Sidereal Time
14:28:43
Azimuth
Unknown
Elevation
Unknown
Doppler factor
Unknown
Orbital elements
Apogee altitude
485.566 km
Perigee altitude
484.432 km
Semi-major axis
6,863.136 km
Eccentricity
0.00008
Inclination
43.004°
RAAN
357.3283°
Arg. of periapsis
260.5176°
True anomaly
99.56753°
Mean anomaly
99.5582°
Eccentric anomaly
99.56287°
Mean motion
3.81733 °/min
Orbital period
94.31 mins
BSTAR
-5.0386e-7
Loading maneuver chart data...
Computing Atmospheric mass density...
Loading historical data...
Loading historical data...
Loading historical data...
Loading historical data...
Loading historical data...
Loading historical data...
Loading historical data...

Documentation

Showing up to 5 results
|